Location: Ladrillo (historical)
(32.8195°N, 117.2231°W)
Time: 17:00:36
(UTC+00:00)

Courier 1B - Visible Passes

Search period start: 26 February 2021 00:00
Search period end: 08 March 2021 00:00
Orbit: 962 x 1209 km, 28.3° (Epoch: 25 February)

Date Brightness Start Highest point End Pass type
(mag) Time Alt. Az. Time Alt. Az. Time Alt. Az.
04 Mar 9.7 13:08:49 10° SSW 13:12:59 18° SSE 13:17:06 10° ESE visible
05 Mar 9.8 12:16:34 10° S 12:19:25 13° SSE 12:22:13 10° SE visible
06 Mar 9.1 13:13:37 10° SW 13:19:10 28° SSE 13:24:34 10° E visible
07 Mar 9.2 12:21:43 14° SSW 12:25:33 23° SSE 12:30:29 10° ESE visible
